Powrót do katalogu

SL-12 DEB

AktywnyHEO
NORAD 25809·DEBRIS·🇷🇺 Russia

Wystrzelony Sep 16, 1987 z Baikonur Cosmodrome

Loading…

Następne Przeloty (najbliższe 24 godziny)

TLE

ŚwieżeSource: Space-Track

Epoka: Sep 11, 2026, 13:18 UTC

1 25809U 87079U   26254.55435514  .00007768  00000-0  26467-2 0  9991
2 25809  65.0467  66.9951 3998360  39.2631 343.8959  7.24693599139257

Śledź SL-12 DEB w czasie rzeczywistym z AllMySat

Download on the App Store